Weather History for KHWO - September, 2013

Change the Weather History Date:

Monday, September 16, 2013

  Actual Average (KFLL) Record (KFLL)
Temperature  
Mean Temperature 80 °F 83 °F  
Max Temperature 82 °F 89 °F 94 °F (1968)
Min Temperature 77 °F 78 °F 67 °F (1914)
Degree Days  
Heating Degree Days 0 0  
Month to date heating degree days 0  
Since 1 July heating degree days 0  
Cooling Degree Days 14 18  
Month to date cooling degree days 294  
Year to date cooling degree days 3460  
Growing Degree Days 30 (Base 50)    
Moisture  
Dew Point 75 °F    
Average Humidity 83    
Maximum Humidity 90    
Minimum Humidity 69    
Precipitation  
Precipitation 0.15 in 0.31 in 3.20 in (1950)
Month to date precipitation 4.54  
Year to date precipitation 45.61  
Snow  
Snow 0.00 in - - ()
Month to date snowfall  
Since 1 July snowfall  
Since 1 September snowfall  
Snow Depth -    
Sea Level Pressure  
Sea Level Pressure 30.02 in    
Wind  
Wind Speed 7 mph (ENE)    
Max Wind Speed 14 mph    
Max Gust Speed 24 mph    
Visibility 10 miles    
Events Rain , Thunderstorm    
T = Trace of Precipitation, MM = Missing Value Source: NWS Daily Summary

Daily Weather History Graph

Daily Weather History Graph

Search for Another Location

Airport or City:

Trip Planner

Search our weather history database for the weather conditions in past years. The results will help you decide how hot, cold, wet, or windy it might be!

Date:

Astronomy

Sep. 16, 2013 Rise Set
Actual Time 7:07 AM EDT 7:23 PM EDT
Civil Twilight 6:44 AM EDT 7:46 PM EDT
Nautical Twilight 6:17 AM EDT 8:13 PM EDT
Astronomical Twilight 5:50 AM EDT 8:40 PM EDT
Moon 5:20 PM EDT (9/16) 4:06 AM EDT (9/16)
Length of Visible Light 13h 02m
Length of Day
12h 16m
Waxing Gibbous, 90% of the Moon is Illuminated
Sep 16
Waxing Gibbous
Sep 19
Full
Sep 26
Last Quarter
Oct 4
New
Oct 11
First Quarter

Hourly Weather History & Observations

Time (EDT) Temp. Heat Index Dew Point Humidity Pressure Visibility Wind Dir Wind Speed Gust Speed Precip Events Conditions
12:53 AM 81.0 °F 87.3 °F 75.9 °F 85% 30.03 in 10.0 mi Calm Calm - 0.00 in   Partly Cloudy
1:53 AM 80.1 °F 85.4 °F 75.9 °F 87% 30.04 in 10.0 mi ENE 4.6 mph - N/A   Clear
2:53 AM 80.1 °F 85.4 °F 75.9 °F 87% 30.02 in 10.0 mi East 4.6 mph - N/A   Clear
3:53 AM 80.1 °F 85.4 °F 75.9 °F 87% 30.02 in 10.0 mi East 5.8 mph - N/A   Clear
4:53 AM 80.1 °F 85.8 °F 77.0 °F 90% 30.01 in 10.0 mi ENE 3.5 mph - N/A   Partly Cloudy
5:18 AM 80.6 °F 87.1 °F 77.0 °F 89% 30.01 in 10.0 mi ENE 3.5 mph - N/A Thunderstorm Partly Cloudy
5:46 AM 80.6 °F 86.2 °F 75.2 °F 84% 30.00 in 10.0 mi NE 9.2 mph - N/A   Partly Cloudy
5:53 AM 81.0 °F 87.3 °F 75.9 °F 85% 30.00 in 10.0 mi ENE 10.4 mph - 0.00 in Rain Light Rain
6:13 AM 80.6 °F 86.2 °F 75.2 °F 84% 30.00 in 10.0 mi ENE 9.2 mph - 0.00 in Thunderstorm Mostly Cloudy
6:27 AM 80.6 °F 86.2 °F 75.2 °F 84% 30.01 in 4.0 mi ENE 13.8 mph - 0.08 in Rain Heavy Rain
6:44 AM 78.8 °F - 73.4 °F 83% 30.01 in 10.0 mi East 9.2 mph - 0.10 in   Mostly Cloudy
6:53 AM 79.0 °F - 75.9 °F 90% 30.01 in 10.0 mi ENE 8.1 mph - 0.10 in   Mostly Cloudy
7:53 AM 80.1 °F 85.1 °F 75.0 °F 85% 30.02 in 10.0 mi East 8.1 mph - 0.00 in   Clear
8:53 AM 81.0 °F 87.3 °F 75.9 °F 85% 30.03 in 10.0 mi ENE 10.4 mph - N/A   Clear
9:53 AM 81.0 °F 86.2 °F 73.9 °F 79% 30.05 in 10.0 mi SE 13.8 mph 24.2 mph N/A   Mostly Cloudy
10:53 AM 77.0 °F - 71.1 °F 82% 30.08 in 7.0 mi SE 12.7 mph - 0.01 in Rain Light Rain
11:53 AM 78.1 °F - 73.9 °F 87% 30.06 in 10.0 mi ESE 4.6 mph - 0.00 in Rain Light Rain
12:53 PM 81.0 °F 87.9 °F 77.0 °F 88% 30.06 in 10.0 mi ESE 6.9 mph - 0.01 in   Partly Cloudy
1:53 PM 82.0 °F 88.6 °F 75.0 °F 79% 30.02 in 10.0 mi ESE 8.1 mph - N/A   Clear
2:53 PM 82.9 °F 88.8 °F 73.0 °F 72% 30.01 in 10.0 mi ESE 6.9 mph - N/A   Clear
3:53 PM 82.9 °F 88.8 °F 73.0 °F 72% 29.99 in 10.0 mi NE 8.1 mph - N/A   Partly Cloudy
4:53 PM 82.0 °F 87.9 °F 73.9 °F 76% 29.99 in 10.0 mi North 9.2 mph - N/A   Mostly Cloudy
5:53 PM 82.0 °F 86.3 °F 71.1 °F 69% 29.99 in 10.0 mi NNE 10.4 mph - N/A   Clear
6:53 PM 81.0 °F 85.8 °F 73.0 °F 77% 29.99 in 10.0 mi NE 6.9 mph - N/A   Clear
7:53 PM 81.0 °F 85.2 °F 72.0 °F 74% 30.00 in 10.0 mi NE 10.4 mph - N/A   Clear
8:53 PM 80.1 °F 84.5 °F 73.9 °F 81% 30.01 in 10.0 mi ENE 8.1 mph - 0.00 in   Scattered Clouds
9:53 PM 80.1 °F 84.5 °F 73.9 °F 81% 30.01 in 10.0 mi ENE 6.9 mph - N/A   Clear
10:53 PM 80.1 °F 85.1 °F 75.0 °F 85% 30.02 in 10.0 mi ENE 8.1 mph - N/A   Mostly Cloudy
11:15 PM 80.6 °F 86.2 °F 75.2 °F 84% 30.02 in 10.0 mi ENE 6.9 mph - N/A   Mostly Cloudy
11:26 PM 80.6 °F 86.2 °F 75.2 °F 84% 30.02 in 10.0 mi ENE 10.4 mph - N/A   Mostly Cloudy
11:41 PM 80.6 °F 86.2 °F 75.2 °F 84% 30.02 in 10.0 mi ENE 6.9 mph - N/A   Scattered Clouds
11:53 PM 80.1 °F 85.1 °F 75.0 °F 85% 30.02 in 8.0 mi NE 13.8 mph - 0.03 in Rain Rain